Lexington Weather

Lexington, Massachusetts, USA

25°F
1/21/2021 10:16am 
  • Lexington Conditions: Clear
  • Temperature: 25.2°F / -3.8°CWarmer 2.4°F than last hour.
  • Dew Point: 14.0°FIncreased 1.8°Fsince last hour.
  • Relative Humidity: 62%Decreased 1.0% since last hour.
  • Wind: Calm, 10-min avg: Calm, gust: None
  • Barometer: 29.78 in Steady
  • Visibility: 10 miles
  • Snow Today: Trace
  •   

Regional Weather Roundup
for Boston / Norton, MA

        
000
ASUS41 KBOX 150604
RWRBOX

REGIONAL WEATHER ROUNDUP
NATIONAL WEATHER SERVICE BOSTON/NORTON MA
100 AM EST FRI JAN 15 2021

NOTE:  "FAIR" INDICATES FEW OR NO CLOUDS BELOW 12,000 FEET WITH NO 
SIGNIFICANT WEATHER AND/OR OBSTRUCTIONS TO VISIBILITY.

MAZALL-150700-
EASTERN MASSACHUSETTS
  
CITY           SKY/WX    TMP DP  RH WIND       PRES   REMARKS
BOSTON         CLOUDY    34  33  96 N7        29.94R FOG     WCI  28  
6HR MIN TEMP:  34; 6HR MAX TEMP:  34; 6HR PCP:  0.03;                

BEVERLY        CLOUDY    35  33  92 N5        29.93R FOG     WCI  31  
LAWRENCE       CLOUDY    34  33  96 N5        29.95R FOG     WCI  30  
BEDFORD        CLOUDY    34  33  96 CALM      29.93R FOG              
BLUE HILL        N/A     33  32  96 N6        29.89R WCI  28          
NORWOOD        CLOUDY    36  33  89 NW3       29.93R FOG              
MARSHFIELD     CLOUDY    39  39 100 VRB6      29.92R FOG              
PLYMOUTH       CLOUDY    37  35  92 N5        29.90S FOG              
TAUNTON        CLOUDY    38  34  85 VRB3      29.91S FOG              
NEW BEDFORD    CLOUDY    39  36  89 N5        29.90R                  
$$

MAZALL-150700-
CAPE COD AND THE ISLANDS
  
CITY           SKY/WX    TMP DP  RH WIND       PRES   REMARKS
FALMOUTH       CLOUDY    39  37  93 NE8       29.90R                  
HYANNIS        CLOUDY    41  38  89 N8        29.89R                  
CHATHAM        CLOUDY    41  38  89 VRB3      29.91R                  
PROVINCETOWN   LGT RAIN  39  38  96 NE8       29.92R                  
NANTUCKET      CLOUDY    42  41  96 N6        29.88R FOG              
MARTHAS VNYRD  CLOUDY    40  38  93 N10       29.90R                  
$$
 
MAZALL-150700-
CENTRAL AND WESTERN MASSACHUSETTS
  
CITY           SKY/WX    TMP DP  RH WIND       PRES   REMARKS
WORCESTER      FOG       33  31  92 N5        29.90R VSB 1/4 WCI  29  
6HR MIN TEMP:  33; 6HR MAX TEMP:  34; 6HR PCP: TRACE;                

FITCHBURG      CLOUDY    34  34 100 CALM      29.94R FOG              
ORANGE         CLOUDY    33  32  96 CALM      29.93R FOG              
SPRINGFIELD    CLOUDY    32  32  99 CALM      29.92R FOG              
WESTFIELD      CLOUDY    33  32  96 NE5       29.92S FOG     WCI  29  
NORTH ADAMS    CLOUDY    32  29  88 CALM      29.91R FOG              
PITTSFIELD     FOG       31  31 100 CALM      29.87S VSB 1            
$$
 
RIZALL-150700-
RHODE ISLAND
  
CITY           SKY/WX    TMP DP  RH WIND       PRES   REMARKS
PROVIDENCE     CLOUDY    37  35  92 N8        29.92R WCI  31          
6HR MIN TEMP:  37; 6HR MAX TEMP:  41;                                

NEWPORT        CLOUDY    37  35  92 N7        29.90R FOG     WCI  32  
BLOCK ISLAND   CLOUDY    39  36  89 NE10      29.91R                  
SMITHFIELD     CLOUDY    33  33 100 N6        29.91R FOG     WCI  28  
WESTERLY       CLOUDY    37  34  89 CALM      29.91R FOG              
$$
 
CTZALL-150700-
CONNECTICUT
  
CITY           SKY/WX    TMP DP  RH WIND       PRES   REMARKS
BRADLEY INTL   CLOUDY    34  32  92 CALM      29.92R FOG              
6HR MIN TEMP:  33; 6HR MAX TEMP:  34;                                

HARTFORD       CLOUDY    36  33  89 CALM      29.94R FOG              
BRIDGEPORT     NOT AVBL                                               
DANBURY        CLOUDY    32  30  92 CALM      29.91S FOG              
GROTON         CLOUDY    38  35  89 N6        29.91R FOG              
NEW HAVEN      CLOUDY    39  34  82 N12       29.90S HAZE    WCI  32  
CHESTER        CLOUDY   N/A N/A N/A N7        29.90S FOG              
MERIDEN        CLOUDY    36  32  85 CALM      29.92R                  
WILLIMANTIC    CLOUDY    34  32  92 N3        29.92R FOG              
OXFORD         CLOUDY    35  35 100 N3        29.90R                  
$$

MEZ002-015-021-024-NHZ003-005-008-011-012-014-VTZ005-008-150700-
NORTHERN NEW ENGLAND
  
CITY           SKY/WX    TMP DP  RH WIND       PRES   REMARKS
PORTLAND ME    CLOUDY    33  26  75 CALM      29.94S                  
6HR MIN TEMP:  33; 6HR MAX TEMP:  35;                                

BANGOR ME      CLOUDY    31  25  78 NW5       29.93S WCI  26          
CONCORD NH     CLOUDY    31  26  82 CALM      29.93R                  
MANCHESTER NH  CLOUDY    34  31  88 CALM      29.92R FOG              
NASHUA NH      CLOUDY    33  33 100 CALM      29.94R FOG              
PORTSMOUTH NH  CLOUDY    34  28  77 NW3       29.92R                  
JAFFREY NH     CLOUDY    32  28  85 CALM      29.90R FOG              
KEENE NH       CLOUDY    31  30  96 CALM      29.94R FOG              
BURLINGTON VT  MOCLDY    31  26  82 CALM      29.93S                  
MT. WASHINGTON FOG       14  14 100 N3          N/A  VSB 1/16         
$$

NYZ052-076-150700-
EASTERN NEW YORK
  
CITY           SKY/WX    TMP DP  RH WIND       PRES   REMARKS
ALBANY         CLOUDY    30  28  92 NW3       29.93S                  
6HR MIN TEMP:  30; 6HR MAX TEMP:  32;                                

NEW YORK CITY  MOCLDY    41  32  70 CALM      29.90S                  
6HR MIN TEMP:  40; 6HR MAX TEMP:  45;                                

$$
 
ANZALL-150700-
MARINE OBSERVATIONS
  
STATION/POSITION TIME  TEMP    WIND        PRES    VSBY  WAVE
                       AIR SEA DIR/SP/G                  HT/PER
                 (UTC) (F)     (DEG/KT/KT) (MB)    (MI)  (FT/S)
BOSTON BUOY      0550   39 43   40/ 12/ 14 1013.6R         1/11
BUZZARDS BAY     0500           20/ 13/ 14 1012.9R
NANTUCKET SOUND  0550      41   10/ 12/ 14   N/A           1
MASS BAY-STELLWA 0504   39      40/ 12/ 16 1011.6S  1 7/8  1/ 3
ISLE OF SHOALS   0500   37      10/ 10/ 10 1013.0R
S OF BLOCK IS    0556      47                N/A           2/ 8
$$

......................KEY.........................
  SKY/WX - SKY CONDITION/PRESENT WEATHER
  TMP    - TEMPERATURE IN FAHRENHEIT
  DWPT   - DEWPOINT IN FAHRENHEIT
  RH     - RELATIVE HUMIDITY IN PERCENT
  WIND   - DIRECTION AND SPEED IN MPH
  PRES   - MEAN SEA LEVEL PRESSURE IN INCHES OF HG
  WCI    - WIND CHILL INDEX
  VSB    - VISIBILITY IN MILES
  HX     - HEAT INDEX
  TC     - TEMPERATURE IN CELSIUS
  VRB    - VARIABLE WIND DIRECTION
  N/A    - NOT AVAILABLE
  
      

Other recent Regional Weather Roundups

Thu Jan 21, 9:04am

Thu Jan 21, 7:04am

Thu Jan 21, 6:04am

Thu Jan 21, 5:04am

Thu Jan 21, 4:04am

Thu Jan 21, 3:04am

Thu Jan 21, 2:04am

Thu Jan 21, 1:04am

Thu Jan 21, 12:04am

Wed Jan 20, 11:04pm

Wed Jan 20, 10:05pm

Wed Jan 20, 9:04pm

Wed Jan 20, 8:04pm

Wed Jan 20, 7:04pm

Wed Jan 20, 6:05pm

Wed Jan 20, 5:05pm

Wed Jan 20, 1:04pm

Wed Jan 20, 12:04pm

Wed Jan 20, 11:04am

Wed Jan 20, 10:04am

Wed Jan 20, 9:05am

Wed Jan 20, 8:04am

Wed Jan 20, 7:04am

Wed Jan 20, 6:04am

Wed Jan 20, 5:04am

Wed Jan 20, 4:04am

Wed Jan 20, 3:05am

Wed Jan 20, 2:04am

Wed Jan 20, 1:04am

Wed Jan 20, 12:04am

Tue Jan 19, 11:04pm

Tue Jan 19, 10:04pm

Tue Jan 19, 9:04pm

Tue Jan 19, 8:04pm

Tue Jan 19, 7:04pm

Tue Jan 19, 6:05pm

Tue Jan 19, 5:04pm

Tue Jan 19, 4:05pm

Tue Jan 19, 3:04pm

Tue Jan 19, 2:04pm

Tue Jan 19, 1:04pm

Tue Jan 19, 12:05pm

Tue Jan 19, 11:04am

Tue Jan 19, 10:05am

Tue Jan 19, 9:04am

Tue Jan 19, 8:04am

Tue Jan 19, 7:04am

Tue Jan 19, 6:04am

Tue Jan 19, 5:04am

Tue Jan 19, 4:04am

Tue Jan 19, 3:04am

Tue Jan 19, 2:04am

Tue Jan 19, 1:04am

Tue Jan 19, 12:04am

Mon Jan 18, 11:04pm

Mon Jan 18, 10:04pm

Mon Jan 18, 9:04pm

Mon Jan 18, 8:05pm

Mon Jan 18, 7:04pm

Mon Jan 18, 6:05pm

Mon Jan 18, 5:04pm

Mon Jan 18, 4:04pm

Mon Jan 18, 3:04pm

Mon Jan 18, 2:04pm

Mon Jan 18, 1:04pm

Mon Jan 18, 12:04pm

Mon Jan 18, 11:04am

Mon Jan 18, 10:04am

Mon Jan 18, 9:04am

Mon Jan 18, 8:04am

Mon Jan 18, 7:04am

Mon Jan 18, 6:04am

Mon Jan 18, 5:04am

Mon Jan 18, 4:04am

Mon Jan 18, 3:04am

Mon Jan 18, 2:04am

Mon Jan 18, 1:04am

Mon Jan 18, 12:04am

Sun Jan 17, 11:04pm

Sun Jan 17, 10:04pm

Sun Jan 17, 9:04pm

Sun Jan 17, 8:04pm

Sun Jan 17, 7:04pm

Sun Jan 17, 6:04pm

Sun Jan 17, 5:04pm

Sun Jan 17, 4:05pm

Sun Jan 17, 3:04pm

Sun Jan 17, 2:04pm

Sun Jan 17, 1:04pm

Sun Jan 17, 12:04pm

Sun Jan 17, 11:04am

Sun Jan 17, 10:04am

Sun Jan 17, 9:04am

Sun Jan 17, 8:04am

Sun Jan 17, 7:04am

Sun Jan 17, 6:04am

Sun Jan 17, 5:04am

Sun Jan 17, 4:04am

Sun Jan 17, 3:04am

Sun Jan 17, 2:04am

Sun Jan 17, 1:04am

Sun Jan 17, 12:04am

Sat Jan 16, 11:05pm

Sat Jan 16, 10:04pm

Sat Jan 16, 9:04pm

Sat Jan 16, 8:05pm

Sat Jan 16, 7:04pm

Sat Jan 16, 6:04pm

Sat Jan 16, 5:05pm

Sat Jan 16, 4:05pm

Sat Jan 16, 3:05pm

Sat Jan 16, 2:04pm

Sat Jan 16, 1:04pm

Sat Jan 16, 12:04pm

Sat Jan 16, 11:04am

Sat Jan 16, 10:05am

Sat Jan 16, 9:04am

Sat Jan 16, 8:04am

Sat Jan 16, 7:04am

Sat Jan 16, 6:04am

Sat Jan 16, 5:04am

Sat Jan 16, 4:04am

Sat Jan 16, 3:05am

Sat Jan 16, 2:04am

Sat Jan 16, 1:04am

Sat Jan 16, 12:05am

Fri Jan 15, 11:05pm

Fri Jan 15, 10:04pm

Fri Jan 15, 9:04pm

Fri Jan 15, 8:04pm

Fri Jan 15, 7:05pm

Fri Jan 15, 6:05pm

Fri Jan 15, 5:05pm

Fri Jan 15, 4:05pm

Fri Jan 15, 3:04pm

Fri Jan 15, 2:05pm

Fri Jan 15, 1:04pm

Fri Jan 15, 12:05pm

Fri Jan 15, 11:04am

Fri Jan 15, 10:04am

Fri Jan 15, 9:05am

Fri Jan 15, 8:04am

Fri Jan 15, 7:04am

Fri Jan 15, 6:04am

Fri Jan 15, 5:05am

Fri Jan 15, 4:04am

Fri Jan 15, 3:04am

Fri Jan 15, 2:04am

Fri Jan 15, 12:05am

Thu Jan 14, 11:04pm

Thu Jan 14, 10:04pm

Thu Jan 14, 9:04pm

Thu Jan 14, 8:05pm

Thu Jan 14, 7:04pm

Thu Jan 14, 6:04pm

Thu Jan 14, 5:04pm

Thu Jan 14, 4:05pm

Thu Jan 14, 3:04pm

Thu Jan 14, 2:04pm

Thu Jan 14, 1:04pm

Thu Jan 14, 12:05pm

Thu Jan 14, 11:05am

Thu Jan 14, 10:04am

Thu Jan 14, 9:04am

Thu Jan 14, 8:04am

Thu Jan 14, 7:04am

Thu Jan 14, 6:04am

Thu Jan 14, 5:04am

Thu Jan 14, 4:04am

Thu Jan 14, 3:04am

Thu Jan 14, 2:04am

Thu Jan 14, 1:04am

Thu Jan 14, 12:04am

Wed Jan 13, 11:04pm

Wed Jan 13, 10:04pm

Wed Jan 13, 9:04pm

Wed Jan 13, 8:05pm

Wed Jan 13, 7:04pm

Wed Jan 13, 6:04pm

Wed Jan 13, 5:04pm

Wed Jan 13, 4:04pm

Wed Jan 13, 3:05pm

Wed Jan 13, 2:04pm

Wed Jan 13, 1:04pm

Wed Jan 13, 12:04pm

Wed Jan 13, 11:04am

Wed Jan 13, 10:04am

Wed Jan 13, 9:05am

Wed Jan 13, 8:04am

Wed Jan 13, 7:04am

Wed Jan 13, 6:04am

Wed Jan 13, 5:04am

Wed Jan 13, 4:04am

Wed Jan 13, 3:04am

Wed Jan 13, 2:04am

Wed Jan 13, 1:04am

Wed Jan 13, 12:05am

Tue Jan 12, 11:04pm

Tue Jan 12, 10:04pm

Tue Jan 12, 9:04pm

Tue Jan 12, 8:05pm

Tue Jan 12, 7:04pm

Meta data:

ID: a50d61b7-dcaa-4cb5-8cde-935f0011b002
Link: https://api.weather.gov/products/a50d61b7-dcaa-4cb5-8cde-935f0011b002